Wind_Speed
26 26 26 27 27 28 27 27 27 27 27 27 27 26 26 26 26 26 27 27 26 26 26 26 27 27 28 29 29 29 29 29 29 29 30 31 32 33 33 33 33 33 34
25 25 26 26 27 27 26 26 26 26 26 26 25 25 25 25 25 25 26 25 25 25 26 26 26 27 27 28 28 28 29 29 29 28 30 31 31 32 32 32 32 33 33
25 25 25 25 26 25 25 25 25 24 25 25 24 24 24 24 25 25 25 24 24 24 25 25 25 26 26 26 27 28 29 29 29 29 29 29 29 30 30 30 30 32 33
25 25 25 24 24 24 23 23 23 23 23 23 23 23 23 23 24 24 24 24 24 24 24 24 24 25 25 25 26 26 27 28 28 28 28 28 28 29 29 29 30 31 31
25 24 23 23 22 22 22 22 21 22 22 23 22 22 22 22 22 22 22 22 22 23 23 23 23 23 23 23 23 23 24 25 25 25 26 26 26 27 27 27 28 29 29
22 21 21 21 21 21 21 21 21 21 21 21 20 20 20 20 20 20 20 21 21 21 20 20 20 20 19 20 20 20 20 21 22 22 23 23 23 23 24 24 25 26 26
19 19 20 19 19 19 19 19 19 20 20 19 19 19 18 18 18 18 18 19 19 18 18 18 17 17 17 17 17 17 17 18 19 19 19 19 20 20 21 21 22 22 23
17 17 17 17 17 17 17 16 16 16 16 16 16 16 16 16 16 15 16 16 16 16 15 14 14 14 14 14 14 14 14 14 15 15 15 15 16 17 17 17 18 18 19
15 15 15 16 16 15 15 14 14 14 14 14 14 13 13 13 13 13 13 13 12 12 11 11 10 10 10 10 10 11 11 11 11 11 11 12 12 12 13 14 14 14 14
15 15 15 15 14 13 13 13 13 13 13 13 11 11 10 9 9 9 8 8 7 6 6 6 6 5 6 6 6 7 7 7 7 8 8 7 8 8 8 9 9 9 10
13 13 13 12 12 12 12 12 12 12 11 10 9 8 7 6 5 5 5 4 4 3 2 2 2 2 2 2 3 3 4 5 4 4 4 4 4 5 5 5 6 6 7
11 11 11 11 11 11 11 11 11 10 8 7 6 5 4 4 3 4 4 4 4 4 4 4 3 2 3 3 3 3 3 3 3 2 2 1 1 2 2 3 4 4 5
9 9 10 10 10 10 10 10 9 8 7 6 5 5 4 4 4 5 5 6 6 6 6 7 7 7 7 6 6 5 5 4 4 4 3 2 1 1 2 2 3 4 5
9 9 10 10 10 10 10 9 9 8 8 8 7 7 7 6 6 7 7 8 8 8 8 8 9 9 9 9 8 7 7 6 6 5 5 4 4 3 3 3 4 4 5
8 9 10 10 11 11 11 11 10 10 9 10 10 10 10 10 10 10 10 10 10 11 11 12 12 11 11 10 10 10 9 9 8 7 6 5 4 3 4 4 5 5 6
8 9 9 10 10 11 11 11 11 11 11 11 11 12 12 12 12 12 12 12 13 13 14 14 14 13 13 13 13 12 11 10 9 8 7 6 5 6 6 6 6 7 7
9 9 10 10 11 11 12 12 12 12 12 13 13 13 14 14 15 15 15 15 14 15 15 15 15 15 15 14 13 12 11 10 9 8 8 7 7 7 7 7 7 8 9
11 11 11 11 12 12 13 13 13 13 13 14 14 15 15 15 15 15 16 16 15 15 15 14 14 14 13 13 12 11 10 10 10 9 9 8 8 8 8 8 9 10 10
11 12 13 13 13 14 14 14 14 15 15 15 15 15 15 15 15 15 15 15 15 15 14 13 13 13 12 12 12 11 11 11 10 10 10 9 9 9 10 10 10 11 12
11 11 12 12 13 14 15 15 14 15 15 15 15 14 14 14 14 14 14 14 14 13 13 13 13 13 13 12 11 11 11 11 11 10 10 11 11 11 11 11 12 12 13
10 10 10 11 12 13 14 14 14 14 14 14 14 13 13 13 13 12 12 12 12 13 13 13 12 12 11 11 11 11 10 10 10 10 11 11 12 12 12 13 14 15 15
9 9 9 10 11 12 12 13 13 13 13 13 12 12 12 12 12 12 12 12 12 12 12 12 11 10 10 10 10 10 10 10 10 11 11 12 13 14 14 15 16 17 18
8 8 9 9 10 10 10 11 11 11 11 11 10 10 10 11 11 11 10 10 10 10 9 9 9 10 9 10 10 10 10 11 11 12 13 14 15 16 17 18 19 20 21
6 6 7 8 8 8 8 8 8 8 8 8 8 8 8 8 8 9 9 9 9 8 8 8 8 8 9 9 10 10 11 12 13 14 15 16 17 18 19 21 22 23 23
4 5 5 5 5 6 6 6 6 5 5 5 5 6 6 6 6 6 7 7 7 7 7 8 8 9 9 9 10 11 12 13 15 16 17 18 20 21 22 23 24 25 26
2 2 3 3 3 3 3 3 3 3 3 3 4 3 3 4 4 5 5 6 6 7 7 8 8 9 10 11 12 13 14 15 17 18 19 20 22 23 25 26 27 28 29
Wind_Direction
290 291 291 290 289 289 288 287 286 285 284 282 280 279 279 278 277 276 275 274 274 273 271 269 269 268 265 263 262 261 259 259 258 257 257 257 258 259 258 259 259 259 260
293 293 292 291 290 290 290 288 287 285 284 283 282 281 281 280 278 277 277 276 274 274 272 271 269 268 268 264 262 261 259 258 258 258 258 258 259 260 260 259 260 260 260
294 295 294 293 292 291 290 289 287 285 284 284 283 283 282 281 280 278 277 277 276 275 274 272 270 269 268 266 263 261 259 259 258 259 258 258 260 260 261 260 260 260 260
296 297 295 294 293 292 291 289 287 286 285 285 286 285 284 283 280 279 278 276 277 276 275 273 271 269 266 265 264 262 260 258 258 259 258 258 259 260 261 261 261 262 262
299 298 296 295 295 294 292 290 289 288 288 288 288 289 288 286 284 281 279 278 278 278 277 275 273 271 268 265 264 263 260 257 257 257 258 258 260 260 260 261 261 262 263
300 299 299 299 299 297 293 291 290 290 291 291 291 292 291 290 288 285 282 280 279 279 278 276 273 271 268 265 264 263 260 256 255 256 258 258 259 260 261 263 263 263 264
301 302 303 304 304 300 298 295 294 293 293 293 292 293 294 293 291 288 286 282 281 280 278 276 272 269 267 265 263 261 259 256 255 256 258 259 259 260 262 263 264 266 269
307 307 308 310 308 305 303 301 300 300 300 299 298 297 295 293 292 291 288 286 284 281 278 275 272 268 266 263 262 260 257 255 255 255 257 257 259 261 264 265 268 271 275
310 312 312 314 314 313 313 312 311 309 307 305 304 302 299 298 297 296 294 292 287 283 279 277 271 267 261 260 259 255 251 250 254 254 253 255 257 259 264 269 272 276 278
311 313 316 318 318 318 319 319 318 315 310 308 307 306 305 306 305 307 309 306 304 299 290 278 272 269 258 252 252 246 237 238 245 247 248 249 253 259 268 272 274 280 281
319 322 325 326 326 326 327 327 324 322 319 316 315 315 318 322 322 328 334 336 345 342 339 328 296 280 249 230 226 223 215 214 217 233 240 248 257 265 271 274 279 286 287
331 334 336 335 335 336 338 338 335 334 336 337 338 341 349 354 3 7 13 26 41 54 59 62 73 83 101 115 136 145 157 168 178 183 173 192 258 269 279 296 293 295 297
343 345 347 347 346 348 350 353 359 5 10 18 24 30 36 42 48 45 51 59 65 76 78 77 85 90 95 99 105 117 115 118 123 116 113 106 79 54 35 351 334 325 324
352 356 359 2 5 8 13 20 26 36 45 49 52 56 59 63 67 69 70 75 75 77 80 83 88 89 98 96 96 101 102 101 99 93 90 86 75 57 33 10 358 349 339
7 10 14 19 24 30 37 43 48 53 58 60 62 68 72 76 78 79 80 81 82 82 84 89 90 90 90 91 91 91 91 89 87 83 77 72 62 42 26 15 6 2 358
23 24 29 33 37 42 45 50 56 60 62 65 70 75 78 78 79 81 83 84 83 81 86 88 87 87 86 85 83 81 79 76 72 70 68 63 55 42 29 20 13 8 1
38 41 43 47 51 53 55 59 63 66 68 72 76 80 82 81 81 83 85 87 86 83 83 86 86 84 82 79 78 76 72 68 65 62 58 49 39 32 26 19 12 7 2
53 54 54 58 62 64 66 68 69 72 74 78 81 83 84 83 82 82 83 83 83 83 83 83 83 81 79 77 73 71 68 64 58 53 48 42 37 32 26 18 11 3 358
62 64 66 67 69 71 72 74 75 77 78 82 83 85 84 84 83 84 83 80 79 80 79 78 77 75 74 72 69 65 61 56 51 48 43 38 31 24 18 11 4 359 354
66 69 71 72 72 74 76 77 78 80 80 81 84 86 86 84 84 83 81 77 76 74 75 75 72 69 65 64 61 57 53 50 46 41 35 29 22 16 9 3 359 354 350
66 68 72 75 76 77 77 77 78 80 81 81 82 82 82 81 81 81 78 77 76 74 72 69 65 61 60 59 56 52 47 43 37 31 24 17 11 7 3 358 353 349 344
67 72 76 78 78 77 77 78 78 79 81 82 82 82 80 77 75 74 74 75 73 69 65 61 58 57 54 50 47 42 35 29 23 17 11 6 1 357 352 349 345 342 339
69 72 78 81 81 80 79 77 76 76 78 79 79 78 76 74 71 69 68 67 65 61 57 54 51 47 40 35 31 27 21 16 11 5 360 356 352 348 344 341 339 337 335
66 75 78 78 79 79 78 78 76 75 77 76 75 74 72 69 67 64 62 58 55 51 47 42 36 31 27 22 18 12 6 1 356 352 349 347 345 342 340 337 335 333 331
65 78 79 79 79 77 75 75 75 74 72 67 65 64 62 58 53 48 43 39 36 33 30 26 21 17 13 9 4 359 355 350 346 344 342 340 339 337 336 335 334 332 330
62 65 69 70 69 67 63 57 52 50 47 40 37 39 35 31 27 23 19 16 12 10 9 7 4 1 358 354 350 348 346 344 342 340 338 337 335 334 333 332 331 329 327
Height
5778 5776 5773 5771 5769 5767 5765 5763 5761 5759 5758 5756 5755 5753 5752 5751 5750 5749 5749 5748 5748 5748 5747 5748 5748 5748 5749 5750 5751 5753 5754 5756 5757 5759 5760 5761 5762 5763 5764 5765 5766 5767 5768
5772 5769 5766 5764 5762 5760 5758 5755 5754 5752 5750 5749 5747 5746 5744 5743 5742 5742 5741 5741 5740 5740 5740 5740 5740 5741 5741 5742 5743 5745 5746 5748 5749 5751 5752 5753 5754 5755 5756 5757 5757 5758 5759
5765 5762 5759 5757 5754 5752 5750 5748 5747 5745 5743 5742 5740 5738 5737 5736 5735 5734 5734 5733 5733 5732 5732 5732 5733 5733 5734 5734 5735 5737 5738 5739 5741 5742 5744 5745 5746 5747 5748 5748 5749 5750 5751
5759 5756 5753 5750 5748 5746 5743 5741 5740 5738 5736 5735 5733 5732 5730 5729 5728 5727 5727 5726 5725 5725 5725 5725 5725 5725 5726 5727 5728 5729 5730 5731 5733 5734 5736 5737 5738 5739 5740 5740 5741 5742 5743
5752 5749 5746 5744 5741 5739 5737 5735 5733 5732 5730 5728 5727 5725 5723 5722 5721 5720 5719 5719 5719 5718 5718 5718 5718 5718 5718 5719 5720 5721 5722 5724 5726 5727 5728 5729 5731 5731 5732 5733 5734 5735 5736
5746 5743 5740 5738 5736 5733 5731 5729 5727 5726 5724 5722 5721 5719 5717 5716 5714 5713 5713 5712 5712 5712 5712 5711 5711 5711 5712 5712 5713 5715 5716 5717 5719 5721 5722 5723 5724 5725 5726 5727 5727 5728 5729
5741 5738 5735 5733 5730 5728 5725 5723 5721 5720 5718 5716 5715 5713 5712 5710 5709 5708 5707 5706 5706 5706 5705 5705 5705 5706 5706 5707 5708 5709 5710 5712 5714 5715 5716 5718 5719 5720 5721 5721 5722 5722 5723
5736 5734 5731 5728 5726 5723 5721 5719 5717 5715 5713 5711 5710 5708 5707 5706 5705 5704 5703 5702 5701 5701 5700 5700 5701 5701 5702 5702 5703 5704 5706 5707 5709 5711 5712 5713 5714 5715 5716 5717 5717 5717 5718
5733 5730 5727 5725 5722 5719 5717 5715 5713 5711 5709 5708 5706 5705 5703 5702 5701 5700 5699 5698 5697 5696 5696 5696 5696 5697 5698 5699 5700 5701 5703 5704 5706 5707 5708 5709 5710 5711 5712 5713 5713 5714 5714
5729 5727 5724 5721 5719 5717 5714 5712 5710 5708 5706 5704 5703 5702 5700 5699 5698 5697 5696 5695 5695 5694 5694 5694 5694 5695 5696 5696 5698 5699 5700 5702 5703 5704 5706 5707 5708 5709 5709 5710 5710 5711 5711
5727 5724 5722 5719 5717 5714 5712 5710 5707 5705 5704 5702 5701 5700 5699 5698 5697 5696 5695 5695 5694 5693 5693 5693 5693 5694 5695 5696 5697 5698 5699 5700 5702 5703 5704 5705 5706 5707 5708 5708 5709 5709 5709
5725 5722 5720 5717 5715 5713 5710 5708 5706 5704 5702 5701 5700 5699 5698 5698 5697 5696 5696 5695 5694 5694 5694 5694 5694 5694 5695 5696 5697 5698 5699 5700 5702 5703 5704 5705 5706 5706 5707 5707 5708 5708 5708
5724 5722 5719 5717 5714 5712 5710 5707 5705 5703 5702 5701 5700 5699 5699 5698 5698 5697 5697 5696 5696 5696 5696 5695 5695 5696 5697 5698 5698 5699 5701 5702 5702 5703 5704 5705 5706 5706 5707 5707 5707 5707 5706
5724 5721 5719 5717 5714 5712 5710 5707 5706 5704 5703 5702 5701 5701 5700 5700 5699 5699 5699 5698 5698 5698 5698 5698 5698 5699 5699 5700 5701 5701 5702 5703 5704 5705 5706 5706 5707 5707 5707 5707 5706 5706 5706
5724 5722 5720 5717 5715 5713 5711 5709 5708 5706 5705 5705 5704 5703 5703 5702 5702 5702 5701 5701 5701 5701 5701 5701 5702 5702 5702 5703 5703 5704 5705 5705 5706 5707 5707 5707 5707 5707 5707 5707 5707 5706 5705
5725 5723 5721 5719 5717 5715 5714 5712 5711 5709 5708 5708 5707 5706 5706 5706 5705 5705 5705 5705 5705 5705 5705 5705 5705 5706 5706 5707 5707 5707 5708 5708 5708 5709 5709 5709 5709 5708 5708 5707 5707 5706 5705
5727 5725 5723 5721 5720 5718 5717 5715 5714 5713 5712 5711 5711 5710 5710 5710 5709 5709 5709 5709 5709 5710 5710 5710 5710 5710 5711 5711 5711 5711 5711 5711 5711 5711 5711 5710 5710 5709 5708 5708 5706 5705 5704
5729 5727 5726 5724 5723 5722 5720 5719 5718 5717 5716 5716 5716 5715 5715 5715 5714 5714 5714 5714 5714 5714 5714 5714 5715 5715 5715 5715 5715 5714 5714 5714 5714 5713 5713 5712 5711 5710 5709 5708 5707 5705 5703
5732 5731 5730 5728 5727 5726 5724 5723 5722 5722 5721 5721 5721 5720 5720 5720 5720 5719 5719 5719 5719 5719 5719 5719 5719 5719 5718 5718 5718 5718 5717 5717 5716 5715 5714 5713 5712 5711 5710 5708 5706 5704 5702
5736 5734 5733 5732 5731 5730 5729 5728 5727 5727 5726 5726 5725 5725 5725 5725 5725 5725 5724 5724 5724 5723 5723 5723 5722 5722 5722 5722 5721 5720 5720 5719 5718 5717 5716 5714 5713 5711 5710 5708 5706 5703 5701
5739 5738 5737 5736 5735 5734 5733 5733 5732 5731 5731 5731 5730 5730 5730 5729 5729 5729 5729 5728 5728 5727 5727 5726 5726 5725 5725 5724 5724 5723 5722 5721 5720 5718 5717 5715 5713 5712 5709 5707 5705 5702 5700
5742 5742 5741 5740 5739 5738 5738 5737 5737 5736 5735 5735 5735 5734 5734 5734 5733 5733 5732 5732 5731 5731 5730 5730 5729 5728 5728 5727 5726 5725 5724 5722 5721 5719 5718 5716 5714 5711 5709 5706 5703 5701 5697
5745 5745 5744 5743 5743 5742 5742 5741 5741 5740 5740 5739 5739 5738 5738 5737 5737 5736 5736 5735 5734 5734 5733 5732 5732 5731 5730 5728 5727 5726 5725 5723 5722 5720 5718 5715 5713 5710 5707 5704 5701 5698 5694
5748 5747 5747 5746 5746 5745 5745 5744 5744 5743 5743 5742 5742 5741 5741 5740 5740 5739 5739 5738 5737 5736 5735 5734 5733 5732 5731 5730 5728 5727 5725 5723 5721 5719 5716 5714 5711 5708 5705 5701 5698 5694 5690
5750 5749 5749 5749 5748 5748 5747 5747 5746 5746 5745 5745 5744 5744 5743 5743 5742 5741 5741 5740 5739 5738 5737 5736 5734 5733 5732 5730 5729 5727 5725 5723 5720 5717 5715 5712 5708 5705 5701 5698 5694 5690 5686
5751 5751 5750 5750 5750 5749 5749 5749 5748 5748 5747 5747 5746 5745 5745 5744 5743 5743 5742 5741 5740 5739 5738 5736 5735 5733 5732 5730 5728 5726 5724 5721 5718 5715 5712 5709 5705 5701 5698 5694 5690 5685 5680